Location: Newark
(36.1358°N, 115.1208°W)
Time: 08:12:55
(UTC+00:00)

S-56A Canister/Altair - Pass Details

Date: 25 February 2020
Orbit: 634 x 2498 km, 38.9° (Epoch: 07 April)

Event Time Altitude Azimuth Distance (km) Brightness Sun altitude
Rises 02:30:10 0° 281° (W) 5,696 13.7 -12.8°
Reaches altitude 10° 02:38:37 10° 249° (WSW) 4,155 12.4 -14.5°
Maximum altitude 02:40:37 11° 239° (WSW) 3,955 12.1 -14.9°
Drops below altitude 10° 02:42:30 10° 228° (SW) 3,858 11.8 -15.3°
Sets 02:48:56 0° 192° (SSW) 4,286 11.5 -16.6°
